DW7126 Lourinha PT current weather conditions

sailwx.info

Wind from 198

Air temperature 19.4° C
Dewpoint 17.0° C

Last reported at 2014-Oct-31 19:45 UTC.
Time now 2014-Nov-01 02:42 UTC

Location: N 39°14' W 009°18'.
View on Google Maps.

See reports from other nearby stations

  
Tides and Currents Weather Stations Pressure Air Temp Water Temp Dewpoint Dewpoint Depression Visibility Wind Speed Wind Dir Waves Ship Positions
date/time (UTC)wind fromknots sea level pressurealtimeterstation pressurevisibilityair tempwater tempwave heightnotes
2014-Oct-31 19:45 198 19.4
2014-Oct-31 19:40 198 20.0
2014-Oct-31 19:35 198 20.0
2014-Oct-31 19:30 197 1 gusting 6 20.0
2014-Oct-31 19:25 178 3 gusting 6 20.0
2014-Oct-31 19:20 192 3 gusting 6 20.0
2014-Oct-31 19:15 190 3 gusting 6 20.0
2014-Oct-31 19:10 198 3 gusting 6 20.0
2014-Oct-31 19:05 202 4 gusting 6 20.0
2014-Oct-31 19:00 215 4 gusting 6 20.0
2014-Oct-31 18:55 209 3 gusting 6 20.6
2014-Oct-31 18:50 200 3 gusting 6 20.6
2014-Oct-31 18:45 201 4 gusting 6 20.6
2014-Oct-31 18:40 207 4 gusting 6 20.6
2014-Oct-31 18:35 360 4 gusting 6 20.6
2014-Oct-31 18:30 202 4 gusting 6 20.6
2014-Oct-31 18:25 203 2 gusting 8 20.6
2014-Oct-31 18:20 202 6 gusting 8 20.6
2014-Oct-31 18:15 196 4 gusting 7 20.6
2014-Oct-31 18:10 196 2 gusting 8 21.1
2014-Oct-31 18:05 192 4 gusting 8 21.1
2014-Oct-31 18:00 183 5 gusting 6 21.1
2014-Oct-31 17:55 176 4 gusting 6 21.1
2014-Oct-31 17:50 360 3 gusting 6 21.1
2014-Oct-31 17:45 184 2 gusting 7 21.1
2014-Oct-31 17:40 198 4 gusting 7 21.1
2014-Oct-31 17:35 202 4 gusting 7 21.1
2014-Oct-31 17:30 201 5 gusting 6 21.1
2014-Oct-31 17:25 206 3 gusting 5 21.1
2014-Oct-31 17:20 213 3 gusting 6 21.1
2014-Oct-31 17:15 217 5 gusting 6 21.1
2014-Oct-31 17:10 360 5 gusting 9 21.1
2014-Oct-31 17:05 360 5 gusting 9 21.1
2014-Oct-31 17:00 234 4 gusting 6 21.1
2014-Oct-31 16:55 215 4 gusting 6 21.7
2014-Oct-31 16:50 221 4 gusting 6 21.7
2014-Oct-31 16:45 226 5 gusting 7 21.7
2014-Oct-31 16:40 219 6 gusting 10 21.7
2014-Oct-31 16:35 222 7 gusting 10 21.7
2014-Oct-31 16:30 360 8 gusting 10 21.7
2014-Oct-31 16:25 196 4 gusting 8 22.2
2014-Oct-31 16:20 360 6 gusting 11 22.2
2014-Oct-31 16:15 360 7 gusting 11 22.2
2014-Oct-31 16:10 360 4 gusting 11 22.2
2014-Oct-31 16:05 360 9 gusting 11 22.2
2014-Oct-31 16:00 231 6 gusting 12 22.2
2014-Oct-31 15:55 360 7 gusting 13 22.2
2014-Oct-31 15:50 221 9 gusting 14 22.2
2014-Oct-31 15:45 215 11 gusting 14 22.8
2014-Oct-31 15:40 360 8 gusting 14 22.8
2014-Oct-31 15:35 221 8 gusting 16 22.8
2014-Oct-31 15:30 360 12 gusting 16 22.8
2014-Oct-31 15:25 228 10 gusting 13 22.8
2014-Oct-31 15:20 238 10 gusting 15 22.8
2014-Oct-31 15:15 248 10 gusting 15 22.2
2014-Oct-31 15:10 360 10 gusting 14 22.2
2014-Oct-31 15:05 240 10 gusting 15 22.2
2014-Oct-31 15:00 221 10 gusting 15 22.2
2014-Oct-31 14:55 360 9 gusting 13 22.2
2014-Oct-31 14:50 248 9 gusting 13 22.2
2014-Oct-31 14:45 360 8 gusting 13 22.2
2014-Oct-31 14:40 360 9 gusting 12 22.8
2014-Oct-31 14:35 244 8 gusting 11 22.8
2014-Oct-31 14:30 360 8 gusting 12 22.8
2014-Oct-31 14:25 360 8 gusting 12 22.8
2014-Oct-31 14:20 360 8 gusting 13 22.8
2014-Oct-31 14:15 360 10 gusting 14 22.8
2014-Oct-31 14:10 360 9 gusting 14 22.8
2014-Oct-31 14:05 360 9 gusting 14 22.8
2014-Oct-31 14:00 360 11 gusting 14 22.2
2014-Oct-31 13:55 360 9 gusting 13 22.2
2014-Oct-31 13:50 189 8 gusting 13 22.2
2014-Oct-31 13:45 360 10 gusting 13 22.2
2014-Oct-31 13:40 360 9 gusting 15 22.2
2014-Oct-31 13:35 360 13 gusting 15 22.2
2014-Oct-31 13:30 186 8 gusting 16 22.2
2014-Oct-31 13:25 360 12 gusting 17 22.2
2014-Oct-31 13:20 360 13 gusting 16 22.2
2014-Oct-31 13:15 360 10 gusting 17 22.2
2014-Oct-31 13:10 360 13 gusting 17 21.7
2014-Oct-31 13:05 360 13 gusting 16 22.2
2014-Oct-31 13:00 360 12 gusting 16 22.2
2014-Oct-31 12:55 238 10 gusting 19 22.2
2014-Oct-31 12:50 360 12 gusting 19 22.8
2014-Oct-31 12:45 360 13 gusting 18 22.2
2014-Oct-31 12:40 360 13 gusting 18 22.2
2014-Oct-31 12:35 360 12 gusting 19 22.8
2014-Oct-31 12:30 360 13 gusting 19 22.8
2014-Oct-31 12:25 360 15 gusting 19 22.8
2014-Oct-31 12:20 360 15 gusting 19 22.8
2014-Oct-31 12:15 360 11 gusting 17 22.8
2014-Oct-31 12:10 360 3 gusting 7 22.8
2014-Oct-31 12:05 360 2 gusting 7 22.8
2014-Oct-31 12:00 199 0 gusting 5 22.2
2014-Oct-31 11:55 186 2 gusting 5 22.2
2014-Oct-31 11:50 189 0 gusting 6 22.2
2014-Oct-31 11:45 184 3 gusting 6 22.2
2014-Oct-31 11:40 184 0 gusting 6 22.2
2014-Oct-31 11:35 152 1 gusting 6 21.7
2014-Oct-31 11:30 152 1 gusting 6 21.7
2014-Oct-31 11:25 137 2 gusting 6 21.7
2014-Oct-31 11:20 161 2 gusting 6 21.7
2014-Oct-31 11:15 151 0 gusting 7 21.7
2014-Oct-31 11:10 360 1 gusting 6 21.7
2014-Oct-31 11:05 149 4 gusting 6 21.7
2014-Oct-31 11:00 136 3 gusting 5 21.1
2014-Oct-31 10:55 179 0 gusting 5 21.1
2014-Oct-31 10:50 171 2 gusting 6 21.1
2014-Oct-31 10:45 150 2 gusting 6 21.1
2014-Oct-31 10:40 136 0 gusting 6 21.1
2014-Oct-31 10:35 141 0 gusting 7 20.6
2014-Oct-31 10:30 128 2 gusting 9 20.6
2014-Oct-31 10:25 128 6 gusting 10 20.6
2014-Oct-31 10:20 154 5 gusting 8 20.6
2014-Oct-31 10:15 152 2 gusting 7 20.6
2014-Oct-31 10:10 121 2 gusting 7 20.6
2014-Oct-31 10:05 253 20.6
2014-Oct-31 10:00 253 20.0
2014-Oct-31 09:55 286 19.4
2014-Oct-31 09:50 261 0 gusting 4 19.4
2014-Oct-31 09:45 124 20.0
2014-Oct-31 09:40 121 0 gusting 5 19.4
2014-Oct-31 09:35 126 2 gusting 6 19.4
2014-Oct-31 09:30 110 0 gusting 3 18.9
2014-Oct-31 09:25 005 18.9
2014-Oct-31 09:20 059 18.9
2014-Oct-31 09:15 061 18.3
2014-Oct-31 09:10 061 18.3
2014-Oct-31 09:05 060 18.3
2014-Oct-31 09:00 324 17.8
2014-Oct-31 08:55 324 17.2
2014-Oct-31 08:50 323 2 gusting 4 17.2
2014-Oct-31 08:45 083 17.2
2014-Oct-31 08:40 089 17.2
2014-Oct-31 08:35 090 17.2
2014-Oct-31 08:30 085 17.2
2014-Oct-31 08:25 087 17.2
2014-Oct-31 08:20 086 2 gusting 5 17.2
2014-Oct-31 08:15 029 17.2
2014-Oct-31 08:10 026 16.7
2014-Oct-31 08:05 026 1 gusting 4 17.2
2014-Oct-31 08:00 064 0 gusting 7 17.2
2014-Oct-31 07:55 109 2 gusting 13 17.8
2014-Oct-31 07:50 083 8 gusting 13 17.8
2014-Oct-31 07:45 360 9 gusting 12 17.2
2014-Oct-31 07:40 102 7 gusting 11 17.2
2014-Oct-31 07:35 128 6 gusting 12 17.2
2014-Oct-31 07:30 360 6 gusting 12 16.7
2014-Oct-31 07:25 360 8 gusting 13 16.7
2014-Oct-31 07:20 109 9 gusting 13 17.2
2014-Oct-31 07:15 104 9 gusting 18 16.7
2014-Oct-31 07:10 099 11 gusting 15 16.7
2014-Oct-31 07:05 115 11 gusting 14 16.7
2014-Oct-31 07:00 360 10 gusting 14 16.7
2014-Oct-31 06:55 360 11 gusting 13 16.7
2014-Oct-31 06:50 087 10 gusting 14 16.7
2014-Oct-31 06:45 092 11 gusting 14 16.7
2014-Oct-31 06:40 108 10 gusting 13 16.7
2014-Oct-31 06:35 360 12 gusting 13 16.7
2014-Oct-31 06:30 360 10 gusting 14 17.2
2014-Oct-31 06:25 095 10 gusting 13 17.2
2014-Oct-31 06:20 090 10 gusting 13 17.2
2014-Oct-31 06:15 086 10 gusting 13 17.2
2014-Oct-31 06:10 092 9 gusting 13 17.2
2014-Oct-31 06:05 119 9 gusting 13 17.2
2014-Oct-31 06:00 111 8 gusting 13 17.2
2014-Oct-31 05:55 096 8 gusting 13 17.2
2014-Oct-31 05:50 360 6 gusting 12 17.2
2014-Oct-31 05:45 134 6 gusting 9 17.2
2014-Oct-31 05:40 105 5 gusting 9 17.2
2014-Oct-31 05:35 124 6 gusting 12 17.2
2014-Oct-31 05:30 077 6 gusting 12 17.2
2014-Oct-31 05:25 128 6 gusting 10 17.2
2014-Oct-31 05:20 129 6 gusting 10 17.2
2014-Oct-31 05:15 111 4 gusting 9 17.2
2014-Oct-31 05:10 122 6 gusting 10 17.2
2014-Oct-31 05:05 360 5 gusting 10 17.2
2014-Oct-31 05:00 113 6 gusting 9 17.2
2014-Oct-31 04:55 360 6 gusting 11 17.2
2014-Oct-31 04:50 114 7 gusting 11 17.2
2014-Oct-31 04:45 117 7 gusting 11 17.8
2014-Oct-31 04:40 109 7 gusting 11 17.8
2014-Oct-31 04:35 115 7 gusting 11 17.8
2014-Oct-31 04:30 360 7 gusting 11 17.8
2014-Oct-31 04:25 115 6 gusting 11 17.8
2014-Oct-31 04:20 088 6 gusting 11 17.8
2014-Oct-31 04:15 123 6 gusting 10 17.8
2014-Oct-31 04:10 106 6 gusting 10 17.2
2014-Oct-31 04:05 095 5 gusting 9 17.2
2014-Oct-31 04:00 360 6 gusting 10 17.2
2014-Oct-31 03:55 103 6 gusting 10 17.8
2014-Oct-31 03:50 094 7 gusting 12 17.8
2014-Oct-31 03:45 114 9 gusting 13 17.8
2014-Oct-31 03:40 126 9 gusting 13 17.8
2014-Oct-31 03:35 360 10 gusting 14 17.8
2014-Oct-31 03:30 103 10 gusting 13 17.8
2014-Oct-31 03:25 360 9 gusting 13 17.8
2014-Oct-31 03:20 360 9 gusting 13 18.3
2014-Oct-31 03:15 360 8 gusting 13 18.3
2014-Oct-31 03:10 103 7 gusting 13 18.3
2014-Oct-31 03:05 126 6 gusting 10 18.3
2014-Oct-31 03:00 108 4 gusting 8 18.3
2014-Oct-31 02:55 141 2 gusting 9 17.8
2014-Oct-31 02:50 136 6 gusting 9 18.9
2014-Oct-31 02:45 117 5 gusting 8 18.9
2014-Oct-31 02:40 121 4 gusting 7 18.9
2014-Oct-31 02:35 129 1 gusting 6 17.8
2014-Oct-31 02:30 131 17.2
2014-Oct-31 02:25 109 17.2
2014-Oct-31 02:20 109 17.2
2014-Oct-31 02:15 121 0 gusting 2 17.8
2014-Oct-31 02:10 159 17.2
2014-Oct-31 02:05 180 17.8
2014-Oct-31 02:00 191 4 gusting 13 20.0
2014-Oct-31 01:55 360 6 gusting 13 20.6
2014-Oct-31 01:50 126 7 gusting 13 20.6
2014-Oct-31 01:45 140 7 gusting 12 19.4
2014-Oct-31 01:40 132 5 gusting 6 17.2
2014-Oct-31 01:35 084 2 gusting 5 16.7
2014-Oct-31 01:30 326 17.2
2014-Oct-31 01:25 315 4 gusting 6 16.7
2014-Oct-31 01:20 144 18.3
2014-Oct-31 01:15 144 0 gusting 6 19.4
2014-Oct-31 01:10 127 4 gusting 10 19.4
2014-Oct-31 01:05 143 6 gusting 10 20.6
2014-Oct-31 01:00 132 6 gusting 10 20.6
2014-Oct-31 00:55 360 5 gusting 8 20.6
2014-Oct-31 00:50 144 4 gusting 6 19.4
2014-Oct-31 00:45 160 2 gusting 6 18.9
2014-Oct-31 00:40 141 1 gusting 5 17.8
2014-Oct-31 00:35 360 16.7
2014-Oct-31 00:30 128 16.7
2014-Oct-31 00:25 128 16.7
2014-Oct-31 00:20 034 16.7
2014-Oct-31 00:15 019 16.7
2014-Oct-31 00:11 019 16.7
2014-Oct-31 00:00 017 16.7
2014-Oct-30 23:55 017 17.2
2014-Oct-30 23:50 017 17.8
2014-Oct-30 23:45 017 17.2
2014-Oct-30 23:40 017 1 gusting 3 16.7
2014-Oct-30 23:35 227 17.2
2014-Oct-30 23:30 228 17.2
2014-Oct-30 23:25 227 17.8
2014-Oct-30 23:20 227 18.3
2014-Oct-30 23:15 227 18.9
2014-Oct-30 23:10 229 18.3
2014-Oct-30 23:05 229 18.9
2014-Oct-30 23:00 227 18.9
2014-Oct-30 22:55 227 19.4
2014-Oct-30 22:50 227 19.4
2014-Oct-30 22:45 227 0 gusting 7 20.6
2014-Oct-30 22:40 173 6 gusting 7 21.1
2014-Oct-30 22:35 114 4 gusting 7 20.0
2014-Oct-30 22:30 147 19.4
2014-Oct-30 22:25 147 19.4
2014-Oct-30 22:20 147 20.0
2014-Oct-30 22:15 147 21.1
2014-Oct-30 22:10 360 20.6
2014-Oct-30 22:05 128 20.0
2014-Oct-30 22:00 128 19.4
2014-Oct-30 21:55 128 20.0
2014-Oct-30 21:50 129 20.0
2014-Oct-30 21:45 129 21.7
2014-Oct-30 21:40 135 21.7
2014-Oct-30 21:35 137 21.7
2014-Oct-30 21:30 137 22.2
2014-Oct-30 21:25 139 0 gusting 7 22.2
2014-Oct-30 21:20 126 4 gusting 10 22.2
2014-Oct-30 21:15 123 6 gusting 10 22.2
2014-Oct-30 21:10 116 6 gusting 10 22.2
2014-Oct-30 21:05 360 6 gusting 10 22.8
2014-Oct-30 21:00 360 6 gusting 11 22.8
2014-Oct-30 20:55 360 7 gusting 11 22.8
2014-Oct-30 20:50 135 6 gusting 9 22.8
2014-Oct-30 20:45 119 6 gusting 8 22.8
2014-Oct-30 20:40 126 5 gusting 8 22.8
2014-Oct-30 20:35 123 4 gusting 6 22.8
2014-Oct-30 20:30 124 4 gusting 6 22.8
2014-Oct-30 20:25 115 4 gusting 6 22.8
2014-Oct-30 20:20 360 2 gusting 6 22.2
2014-Oct-30 20:15 114 1 gusting 6 22.2
2014-Oct-30 20:10 122 2 gusting 6 22.2
2014-Oct-30 20:05 117 3 gusting 6 21.7
2014-Oct-30 20:00 360 3 gusting 5 21.1
2014-Oct-30 19:55 134 1 gusting 4 20.0
2014-Oct-30 19:50 125 0 gusting 4 20.6
2014-Oct-30 19:45 126 20.6
2014-Oct-30 19:40 118 21.1
2014-Oct-30 19:35 123 0 gusting 4 22.2
2014-Oct-30 19:30 113 1 gusting 4 22.2
2014-Oct-30 19:25 103 2 gusting 6 22.2
2014-Oct-30 19:20 106 2 gusting 6 22.2
2014-Oct-30 19:15 116 1 gusting 6 22.2
2014-Oct-30 19:10 360 1 gusting 6 22.2
2014-Oct-30 19:05 103 2 gusting 6 22.2
2014-Oct-30 19:00 114 4 gusting 8 22.2
2014-Oct-30 18:55 360 5 gusting 8 22.2
2014-Oct-30 18:50 360 4 gusting 7 22.2
2014-Oct-30 18:45 360 6 gusting 8 22.2
2014-Oct-30 18:40 095 5 gusting 7 22.8
2014-Oct-30 18:35 106 5 gusting 7 22.2
2014-Oct-30 18:30 110 3 gusting 6 22.2
2014-Oct-30 18:25 125 2 gusting 7 22.2
2014-Oct-30 18:20 111 0 gusting 3 22.2
2014-Oct-30 18:15 137 22.2
2014-Oct-30 18:10 137 22.8
2014-Oct-30 18:05 143 2 gusting 7 22.8
2014-Oct-30 18:00 153 5 gusting 7 22.8
2014-Oct-30 17:55 123 5 gusting 8 22.8
2014-Oct-30 17:50 123 6 gusting 8 23.3
2014-Oct-30 17:45 360 4 gusting 8 23.3
2014-Oct-30 17:40 128 4 gusting 7 23.3
2014-Oct-30 17:35 360 4 gusting 7 23.3
2014-Oct-30 17:30 121 2 gusting 7 23.3
2014-Oct-30 17:25 122 3 gusting 8 23.3
2014-Oct-30 17:20 120 1 gusting 4 23.9
2014-Oct-30 17:15 128 2 gusting 4 23.9
2014-Oct-30 17:10 126 1 gusting 4 23.9
2014-Oct-30 17:05 133 1 gusting 4 24.4
2014-Oct-30 17:00 133 0 gusting 4 24.4
2014-Oct-30 16:55 132 0 gusting 4 24.4
2014-Oct-30 16:50 135 0 gusting 4 25.0
2014-Oct-30 16:45 160 1 gusting 4 25.0
2014-Oct-30 16:40 134 0 gusting 4 25.0
2014-Oct-30 16:35 156 25.0
2014-Oct-30 16:30 166 1 gusting 6 25.0
2014-Oct-30 16:25 191 1 gusting 5 25.0
2014-Oct-30 16:20 360 1 gusting 7 25.6
2014-Oct-30 16:15 186 4 gusting 10 25.6
2014-Oct-30 16:10 200 6 gusting 10 25.6
2014-Oct-30 16:05 186 5 gusting 9 25.6
2014-Oct-30 16:00 186 1 gusting 8 25.6
2014-Oct-30 15:55 180 4 gusting 8 25.6
2014-Oct-30 15:50 175 3 gusting 8 25.6
2014-Oct-30 15:45 164 4 gusting 8 25.6
2014-Oct-30 15:40 189 2 gusting 11 26.1
2014-Oct-30 15:35 360 4 gusting 11 25.6
2014-Oct-30 15:30 184 6 gusting 11 25.6
2014-Oct-30 15:25 171 6 gusting 11 25.6
2014-Oct-30 15:20 360 3 gusting 8 26.1
2014-Oct-30 15:15 134 0 gusting 8 26.1
2014-Oct-30 15:10 140 3 gusting 7 25.6
2014-Oct-30 15:05 160 3 gusting 9 26.1
2014-Oct-30 15:00 155 2 gusting 9 26.1
2014-Oct-30 14:55 149 1 gusting 10 26.1
2014-Oct-30 14:50 173 6 gusting 12 25.6
2014-Oct-30 14:45 186 6 gusting 12 26.1
2014-Oct-30 14:40 360 4 gusting 12 26.1
2014-Oct-30 14:35 185 5 gusting 12 25.6
2014-Oct-30 14:30 360 6 gusting 11 25.6
2014-Oct-30 14:25 190 6 gusting 13 25.6
2014-Oct-30 14:20 360 2 gusting 13 25.6
2014-Oct-30 14:15 192 8 gusting 11 25.6
2014-Oct-30 14:10 199 3 gusting 11 25.6
2014-Oct-30 14:05 360 5 gusting 11 25.6
2014-Oct-30 14:00 223 1 gusting 10 25.6
2014-Oct-30 13:55 165 4 gusting 10 25.6
2014-Oct-30 13:50 155 2 gusting 8 25.6
2014-Oct-30 13:45 157 1 gusting 8 25.6
2014-Oct-30 13:40 178 5 gusting 13 25.0
2014-Oct-30 13:35 156 7 gusting 13 25.0
2014-Oct-30 13:30 148 6 gusting 18 24.4
2014-Oct-30 13:25 181 8 gusting 18 24.4
2014-Oct-30 13:20 176 7 gusting 15 24.4
2014-Oct-30 13:15 360 8 gusting 15 24.4
2014-Oct-30 13:10 360 11 gusting 17 24.4
2014-Oct-30 13:05 187 6 gusting 16 24.4
2014-Oct-30 13:00 360 10 gusting 18 24.4
2014-Oct-30 12:55 360 11 gusting 17 24.4
2014-Oct-30 12:50 148 6 gusting 12 25.0
2014-Oct-30 12:45 173 2 gusting 10 24.4
2014-Oct-30 12:40 360 6 gusting 10 24.4
2014-Oct-30 12:35 182 6 gusting 10 24.4
2014-Oct-30 12:30 133 5 gusting 12 24.4
2014-Oct-30 12:25 195 6 gusting 14 24.4
2014-Oct-30 12:20 134 8 gusting 13 24.4
2014-Oct-30 12:15 169 3 gusting 17 24.4
2014-Oct-30 12:10 163 8 gusting 17 23.9
2014-Oct-30 12:05 360 10 gusting 16 23.9
2014-Oct-30 12:00 153 8 gusting 16 23.9
2014-Oct-30 11:55 159 10 gusting 16 23.9
2014-Oct-30 11:50 140 7 gusting 17 23.9
2014-Oct-30 11:45 119 9 gusting 17 23.9
2014-Oct-30 11:40 103 9 gusting 18 23.9
2014-Oct-30 11:35 128 13 gusting 18 23.9
2014-Oct-30 11:30 130 10 gusting 15 23.9
2014-Oct-30 11:25 118 12 gusting 17 23.3
2014-Oct-30 11:20 136 10 gusting 17 23.3
2014-Oct-30 11:15 130 6 gusting 13 23.3
2014-Oct-30 11:10 134 7 gusting 13 23.3
2014-Oct-30 11:05 142 9 gusting 15 23.3
2014-Oct-30 11:00 132 6 gusting 15 23.3
2014-Oct-30 10:55 136 8 gusting 13 23.3
2014-Oct-30 10:50 360 9 gusting 13 22.8
2014-Oct-30 10:45 154 6 gusting 14 22.8
2014-Oct-30 10:40 138 7 gusting 12 22.8
2014-Oct-30 10:35 120 8 gusting 12 22.8
2014-Oct-30 10:30 103 6 gusting 11 22.2
2014-Oct-30 10:25 094 6 gusting 11 21.7
2014-Oct-30 10:20 091 8 gusting 13 21.7
2014-Oct-30 10:15 119 9 gusting 13 21.1
2014-Oct-30 10:10 111 6 gusting 13 21.7
2014-Oct-30 10:05 092 6 gusting 13 21.1
2014-Oct-30 10:00 360 9 gusting 14 20.6
2014-Oct-30 09:55 100 12 gusting 16 20.6
2014-Oct-30 09:50 360 12 gusting 16 20.6
2014-Oct-30 09:45 104 11 gusting 14 20.6
2014-Oct-30 09:40 116 8 gusting 13 20.6
2014-Oct-30 09:35 101 8 gusting 14 20.0
2014-Oct-30 09:30 088 9 gusting 14 20.0
2014-Oct-30 09:25 117 9 gusting 13 20.0
2014-Oct-30 09:20 360 8 gusting 12 19.4
2014-Oct-30 09:15 117 8 gusting 13 19.4
2014-Oct-30 09:10 105 9 gusting 13 18.9
2014-Oct-30 09:05 360 8 gusting 13 18.9
2014-Oct-30 09:00 111 9 gusting 13 18.9
2014-Oct-30 08:55 104 8 gusting 12 18.3
2014-Oct-30 08:50 083 8 gusting 12 18.3
2014-Oct-30 08:45 092 9 gusting 14 18.3
2014-Oct-30 08:40 360 11 gusting 14 18.3
2014-Oct-30 08:35 360 11 gusting 15 17.8
2014-Oct-30 08:30 103 11 gusting 15 17.8
2014-Oct-30 08:25 097 10 gusting 18 17.8
2014-Oct-30 08:20 360 12 gusting 15 17.8
2014-Oct-30 08:15 110 11 gusting 16 17.8
2014-Oct-30 08:10 089 12 gusting 16 17.2
2014-Oct-30 08:05 360 12 gusting 15 17.2
2014-Oct-30 08:00 092 12 gusting 14 17.2
2014-Oct-30 07:55 107 10 gusting 13 17.2
2014-Oct-30 07:50 098 10 gusting 12 17.2
2014-Oct-30 07:45 086 9 gusting 13 17.2
2014-Oct-30 07:40 109 8 gusting 12 17.2
2014-Oct-30 07:35 113 7 gusting 10 17.2
2014-Oct-30 07:30 100 6 gusting 10 17.2
2014-Oct-30 07:25 105 6 gusting 12 17.2
2014-Oct-30 07:20 093 6 gusting 12 17.2
2014-Oct-30 07:15 083 8 gusting 13 17.2
2014-Oct-30 07:10 113 7 gusting 13 17.2
2014-Oct-30 07:05 078 8 gusting 12 17.2
2014-Oct-30 07:00 067 10 gusting 13 17.2
2014-Oct-30 06:55 074 11 gusting 16 17.8
2014-Oct-30 06:50 105 12 gusting 16 17.8
2014-Oct-30 06:45 360 12 gusting 15 17.2
2014-Oct-30 06:40 360 10 gusting 13 17.2
2014-Oct-30 06:35 094 9 gusting 13 17.2
2014-Oct-30 06:30 360 9 gusting 13 17.2
2014-Oct-30 06:25 083 8 gusting 13 17.2
2014-Oct-30 06:20 360 9 gusting 13 17.2
2014-Oct-30 06:15 082 6 gusting 9 17.2
2014-Oct-30 06:10 087 5 gusting 7 17.2
2014-Oct-30 06:05 076 5 gusting 7 17.2
2014-Oct-30 06:00 360 4 gusting 8 17.2
2014-Oct-30 05:55 109 6 gusting 8 17.2
2014-Oct-30 05:50 360 6 gusting 9 17.2
2014-Oct-30 05:45 105 6 gusting 9 17.2
2014-Oct-30 05:40 093 6 gusting 9 17.2
2014-Oct-30 05:35 092 6 gusting 11 17.8
2014-Oct-30 05:30 135 6 gusting 11 17.8
2014-Oct-30 05:25 107 7 gusting 11 17.2
2014-Oct-30 05:20 117 7 gusting 10 17.2
2014-Oct-30 05:15 082 7 gusting 11 17.2
2014-Oct-30 05:10 360 7 gusting 13 17.8
2014-Oct-30 05:05 095 8 gusting 13 17.8
2014-Oct-30 05:00 088 9 gusting 13 17.8
2014-Oct-30 04:55 360 9 gusting 11 17.8
2014-Oct-30 04:50 091 8 gusting 13 17.8
2014-Oct-30 04:45 360 9 gusting 13 17.8
2014-Oct-30 04:40 098 7 gusting 12 17.2
2014-Oct-30 04:35 095 8 gusting 12 17.8
2014-Oct-30 04:30 126 7 gusting 12 17.8
2014-Oct-30 04:25 096 6 gusting 12 17.8
2014-Oct-30 04:20 101 8 gusting 12 17.8
2014-Oct-30 04:15 102 8 gusting 12 17.8
2014-Oct-30 04:10 096 8 gusting 13 17.8
2014-Oct-30 04:05 101 8 gusting 13 17.8
2014-Oct-30 04:00 098 9 gusting 13 17.8
2014-Oct-30 03:55 087 7 gusting 10 17.8
2014-Oct-30 03:50 089 6 gusting 9 17.8
2014-Oct-30 03:45 105 5 gusting 9 17.2
2014-Oct-30 03:40 092 6 gusting 8 17.2
2014-Oct-30 03:35 121 6 gusting 8 17.2
2014-Oct-30 03:30 093 6 gusting 7 17.2
2014-Oct-30 03:25 110 5 gusting 7 17.2
2014-Oct-30 03:20 101 5 gusting 7 17.2
2014-Oct-30 03:15 090 4 gusting 8 17.2
2014-Oct-30 03:10 101 5 gusting 8 17.8
2014-Oct-30 03:05 109 6 gusting 8 17.8
2014-Oct-30 03:00 109 5 gusting 7 17.8
2014-Oct-30 02:55 105 6 gusting 7 17.8
2014-Oct-30 02:50 103 6 gusting 8 17.8
2014-Oct-30 02:45 103 6 gusting 8 17.8
2014-Oct-30 02:40 101 6 gusting 8 17.8
2014-Oct-30 02:35 106 6 gusting 8 17.8
2014-Oct-30 02:30 112 5 gusting 8 18.3
2014-Oct-30 02:25 111 4 gusting 8 18.3
2014-Oct-30 02:20 103 4 gusting 9 18.3
2014-Oct-30 02:15 091 6 gusting 9 18.3
2014-Oct-30 02:10 109 7 gusting 10 18.3
2014-Oct-30 02:05 096 7 gusting 10 18.3
2014-Oct-30 02:00 360 7 gusting 11 18.3